WD9U Weather Reports


Display with metric or nautical units.
time (UTC)temp
F
wind
direction
speed
MPH
gust
MPH
rain 1hr
in
rain 24hr
in
rain mn
in
humidity
%
barometer
mb
20260906164904 75 46 1.0 3.0 0.00 0.00 0.00 79 1021.1
20260906164304 75 343 1.0 2.0 0.00 0.00 0.00 79 1020.9
20260906163703 75 343 1.0 3.0 0.00 0.00 0.00 79 1020.9
20260906163607 75 30 1.0 1.0 0.00 0.00 0.00 80 1020.9
20260906163103 75 0 1.0 2.0 0.00 0.00 0.00 81 1020.8
20260906162503 75 7 0.0 1.0 0.00 0.00 0.00 80 1021.0
20260906161903 75 339 1.0 3.0 0.00 0.00 0.00 80 1021.0
20260906161606 75 326 1.0 4.0 0.00 0.00 0.00 80 1021.0
20260906161302 75 327 1.0 3.0 0.00 0.00 0.00 80 1021.1
20260906160702 75 348 2.0 3.0 0.00 0.00 0.00 80 1021.0
20260906155605 75 328 1.0 2.0 0.00 0.00 0.00 78 1021.1
20260906155502 75 329 1.0 2.0 0.00 0.00 0.00 78 1021.1
20260906154902 76 315 2.0 3.0 0.00 0.00 0.00 77 1021.1
20260906154302 76 0 0.0 0.0 0.00 0.00 0.00 79 1020.9
20260906153702 76 0 0.0 0.0 0.00 0.00 0.00 82 1021.0
20260906153605 75 0 0.0 0.0 0.00 0.00 0.00 82 1021.0
20260906153101 75 0 0.0 0.0 0.00 0.00 0.00 82 1021.1
20260906152501 74 112 1.0 3.0 0.00 0.00 0.00 85 1021.2
20260906151900 73 0 0.0 0.0 0.00 0.00 0.00 87 1021.3
20260906151841 73 93 1.0 3.0 0.00 0.00 0.00 87 1021.1
20260906151612 73 93 1.0 3.0 0.00 0.00 0.00 87 1021.1
20260906151154 72 95 2.0 4.0 0.00 0.00 0.00 88 1021.2
20260906150550 71 126 1.0 3.0 0.00 0.00 0.00 90 1021.4
20260906145948 70 0 0.0 0.0 0.00 0.00 0.00 91 1021.5
20260906145717 70 0 0.0 0.0 0.00 0.00 0.00 91 1021.5
20260906145346 69 0 0.0 0.0 0.00 0.00 0.00 92 1021.4
20260906144754 69 0 0.0 0.0 0.00 0.00 0.00 93 1021.4
20260906144153 68 0 0.0 0.0 0.00 0.00 0.00 94 1021.4
20260906143717 68 0 0.0 0.0 0.00 0.00 0.00 95 1021.4
20260906143551 68 0 0.0 0.0 0.00 0.00 0.00 95 1021.5
20260906142950 67 0 0.0 0.0 0.00 0.00 0.00 96 1021.4
20260906142349 67 0 0.0 0.0 0.00 0.00 0.00 96 1021.4
20260906141746 67 0 0.0 0.0 0.00 0.00 0.00 96 1021.4
20260906141709 67 0 0.0 0.0 0.00 0.00 0.00 96 1021.4
20260906141151 67 318 1.0 3.0 0.00 0.00 0.00 97 1021.5
20260906140552 67 0 0.0 0.0 0.00 0.00 0.00 98 1021.5
20260906135950 66 0 0.0 0.0 0.00 0.00 0.00 100 1021.5
20260906135716 66 317 0.0 1.0 0.00 0.00 0.00 100 1021.6
20260906135350 66 317 1.0 2.0 0.00 0.00 0.00 100 1021.5
20260906134745 65 0 0.0 0.0 0.00 0.00 0.00 100 1021.5
20260906134154 65 276 1.0 3.0 0.00 0.00 0.00 100 1021.6
20260906133711 65 0 0.0 0.0 0.00 0.00 0.00 100 1021.6
20260906133547 64 0 0.0 0.0 0.00 0.00 0.00 100 1021.7
20260906132953 64 0 0.0 0.0 0.00 0.00 0.00 100 1021.6
20260906132345 64 0 0.0 0.0 0.00 0.00 0.00 100 1021.7
20260906131747 64 0 0.0 0.0 0.00 0.00 0.00 100 1021.6
20260906131715 64 0 0.0 0.0 0.00 0.00 0.00 100 1021.6
20260906131151 63 0 0.0 0.0 0.00 0.00 0.00 100 1021.4
20260906130554 63 0 0.0 0.0 0.00 0.00 0.00 100 1021.4
20260906125949 61 0 0.0 0.0 0.00 0.00 0.00 100 1021.4
20260906125713 61 0 0.0 0.0 0.00 0.00 0.00 100 1021.5
20260906125349 61 0 0.0 0.0 0.00 0.00 0.00 100 1021.5
20260906124748 60 0 0.0 0.0 0.00 0.00 0.00 100 1021.5
20260906124146 60 0 0.0 0.0 0.00 0.00 0.00 100 1021.3
20260906123716 59 0 0.0 0.0 0.00 0.00 0.00 100 1021.4
20260906123552 59 0 0.0 0.0 0.00 0.00 0.00 100 1021.5
20260906122951 59 0 0.0 0.0 0.00 0.00 0.00 100 1021.5
20260906122345 58 0 0.0 0.0 0.00 0.00 0.00 100 1021.4
20260906121753 58 0 0.0 0.0 0.00 0.00 0.00 100 1021.4
20260906121718 58 0 0.0 0.0 0.00 0.00 0.00 100 1021.4
20260906121152 58 0 0.0 0.0 0.00 0.00 0.00 100 1021.2
20260906120546 58 0 0.0 0.0 0.00 0.00 0.00 100 1021.1
20260906115954 58 0 0.0 0.0 0.00 0.00 0.00 100 1020.9
20260906115721 58 0 0.0 0.0 0.00 0.00 0.00 100 1020.9
20260906115352 58 0 0.0 0.0 0.00 0.00 0.00 100 1020.9
20260906114751 58 0 0.0 0.0 0.00 0.00 0.00 100 1020.8
20260906114148 58 0 0.0 0.0 0.00 0.00 0.00 100 1020.7
20260906113718 58 0 0.0 0.0 0.00 0.00 0.00 100 1020.6
20260906113715 58 0 0.0 0.0 0.00 0.00 0.00 100 1020.6
20260906113551 58 0 0.0 0.0 0.00 0.00 0.00 100 1020.8
20260906112947 58 0 0.0 0.0 0.00 0.00 0.00 100 1020.7
20260906112354 57 0 0.0 0.0 0.00 0.00 0.00 100 1020.6
20260906111728 57 0 0.0 0.0 0.00 0.00 0.00 100 1020.6
20260906111150 58 0 0.0 0.0 0.00 0.00 0.00 100 1020.5
20260906110547 58 0 0.0 0.0 0.00 0.00 0.00 100 1020.3
20260906105946 58 0 0.0 0.0 0.00 0.00 0.00 100 1020.2
20260906105352 58 0 0.0 0.0 0.00 0.00 0.00 100 1020.2
20260906104748 58 0 0.0 0.0 0.00 0.00 0.00 100 1020.1
20260906104147 58 0 0.0 0.0 0.00 0.00 0.00 100 1020.3
20260906103724 58 0 0.0 0.0 0.00 0.00 0.00 100 1020.3
20260906103553 58 0 0.0 0.0 0.00 0.00 0.00 100 1020.2
20260906102950 58 0 0.0 0.0 0.00 0.00 0.00 100 1020.3
20260906102353 58 0 0.0 0.0 0.00 0.00 0.00 100 1020.2
20260906101956 58 0 0.0 0.0 0.00 0.00 0.00 100 1020.1
20260906101723 58 0 0.0 0.0 0.00 0.00 0.00 100 1020.1
20260906101151 58 0 0.0 0.0 0.00 0.00 0.00 100 1020.2
20260906100549 58 0 0.0 0.0 0.00 0.00 0.00 100 1020.3
20260906095947 58 0 0.0 0.0 0.00 0.00 0.00 100 1020.3
20260906095713 58 0 0.0 0.0 0.00 0.00 0.00 100 1020.3
20260906095353 58 0 0.0 0.0 0.00 0.00 0.00 100 1020.2
20260906094751 58 0 0.0 0.0 0.00 0.00 0.00 100 1020.3
20260906094151 58 0 0.0 0.0 0.00 0.00 0.00 100 1020.2
20260906093722 58 0 0.0 0.0 0.00 0.00 0.00 100 1020.2
20260906093545 58 0 0.0 0.0 0.00 0.00 0.00 100 1020.3
20260906092953 58 0 0.0 0.0 0.00 0.00 0.00 100 1020.2
20260906092348 59 0 0.0 0.0 0.00 0.00 0.00 100 1020.3
20260906092229 59 0 0.0 0.0 0.00 0.00 0.00 100 1020.4
20260906092116 59 0 0.0 0.0 0.00 0.00 0.00 100 1020.4
20260906091749 59 0 0.0 0.0 0.00 0.00 0.00 100 1020.4
20260906091718 59 0 0.0 0.0 0.00 0.00 0.00 100 1020.4
20260906091146 59 0 0.0 0.0 0.00 0.00 0.00 100 1020.5
20260906090551 59 0 0.0 0.0 0.00 0.00 0.00 100 1020.6
20260906085950 59 0 0.0 0.0 0.00 0.00 0.00 100 1020.6
20260906085718 59 0 0.0 0.0 0.00 0.00 0.00 100 1020.6
20260906085346 59 0 0.0 0.0 0.00 0.00 0.00 100 1020.5
20260906084745 59 0 0.0 0.0 0.00 0.00 0.00 100 1020.4
20260906084152 59 0 0.0 0.0 0.00 0.00 0.00 100 1020.4
20260906083753 59 0 0.0 0.0 0.00 0.00 0.00 100 1020.5
20260906083714 59 0 0.0 0.0 0.00 0.00 0.00 100 1020.5
20260906083551 59 0 0.0 0.0 0.00 0.00 0.00 100 1020.5
20260906082950 60 0 0.0 0.0 0.00 0.00 0.00 100 1020.5
20260906082347 60 0 0.0 0.0 0.00 0.00 0.00 100 1020.4
20260906081746 60 0 0.0 0.0 0.00 0.00 0.00 100 1020.5
20260906081145 60 0 0.0 0.0 0.00 0.00 0.00 100 1020.3
20260906080552 60 0 0.0 0.0 0.00 0.00 0.00 100 1020.3
20260906075952 60 0 0.0 0.0 0.00 0.00 0.00 100 1020.2
20260906075715 60 0 0.0 0.0 0.00 0.00 0.00 100 1020.3
20260906075349 60 0 0.0 0.0 0.00 0.00 0.00 100 1020.3
20260906074748 60 0 0.0 0.0 0.00 0.00 0.00 100 1020.2
20260906074148 60 0 0.0 0.0 0.00 0.00 0.00 100 1020.3
20260906073758 60 0 0.0 0.0 0.00 0.00 0.00 100 1020.3
20260906073713 60 0 0.0 0.0 0.00 0.00 0.00 100 1020.3
20260906073546 60 0 0.0 0.0 0.00 0.00 0.00 100 1020.4
20260906072953 61 0 0.0 0.0 0.00 0.00 0.00 100 1020.4
20260906072347 61 0 0.0 0.0 0.00 0.00 0.00 100 1020.5
20260906071747 61 0 0.0 0.0 0.00 0.00 0.00 100 1020.5
20260906071147 61 0 0.0 0.0 0.00 0.00 0.00 100 1020.5
20260906070552 61 0 0.0 0.0 0.00 0.00 0.00 100 1020.5
20260906065951 61 0 0.0 0.0 0.00 0.00 0.00 100 1020.7
20260906065716 61 0 0.0 0.0 0.00 0.00 0.00 100 1020.5
20260906065348 61 0 0.0 0.0 0.00 0.00 0.00 100 1020.6
20260906064746 62 0 0.0 0.0 0.00 0.00 0.00 100 1020.6
20260906064145 62 0 0.0 0.0 0.00 0.00 0.00 100 1020.6
20260906063723 62 0 0.0 0.0 0.00 0.00 0.00 100 1020.6
20260906063554 62 0 0.0 0.0 0.00 0.00 0.00 100 1020.6
20260906062953 62 0 0.0 0.0 0.00 0.00 0.00 100 1020.5
20260906062349 62 0 0.0 0.0 0.00 0.00 0.00 100 1020.5
20260906061747 62 0 0.0 0.0 0.00 0.00 0.00 100 1020.6
20260906061710 62 0 0.0 0.0 0.00 0.00 0.00 100 1020.6
20260906061145 62 0 0.0 0.0 0.00 0.00 0.00 100 1020.8
20260906060552 62 0 0.0 0.0 0.00 0.00 0.00 100 1020.5
20260906055950 63 0 0.0 0.0 0.00 0.00 0.00 100 1020.5
20260906055714 63 0 0.0 0.0 0.00 0.00 0.00 100 1020.5
20260906055347 63 0 0.0 0.0 0.00 0.00 0.00 100 1020.4
20260906054746 63 0 0.0 0.0 0.00 0.00 0.00 100 1020.2
20260906054146 63 0 0.0 0.0 0.00 0.00 0.00 100 1020.3
20260906053722 64 0 0.0 0.0 0.00 0.00 0.00 3 1023.1
20260906053717 64 0 0.0 0.0 0.00 0.00 0.00 100 1020.1
20260906053553 64 0 0.0 0.0 0.00 0.00 0.00 100 1020.2
20260906052952 64 0 0.0 0.0 0.00 0.00 0.00 100 1020.2
20260906052347 64 0 0.0 0.0 0.00 0.00 0.00 100 1020.2
20260906051724 65 0 0.0 0.0 0.00 0.00 0.00 100 1020.1
20260906051152 65 0 0.0 0.0 0.00 0.00 0.00 100 1020.2
20260906050549 65 0 0.0 0.0 0.00 0.00 0.00 100 1020.1
20260906045946 65 0 0.0 0.0 0.00 0.00 0.00 100 1020.1
20260906045719 65 0 0.0 0.0 0.00 0.00 0.00 100 1020.0
20260906045352 65 0 0.0 0.0 0.00 0.00 0.00 100 1020.1
20260906044752 66 0 0.0 0.0 0.00 0.00 0.00 100 1020.2
20260906044152 66 0 0.0 0.0 0.00 0.00 0.00 100 1020.1
20260906043717 66 0 0.0 0.0 0.00 0.00 0.00 100 1020.2
20260906043547 66 0 0.0 0.0 0.00 0.00 0.00 100 1020.1
20260906042954 66 0 0.0 0.0 0.00 0.00 0.00 99 1020.1
20260906042346 66 0 0.0 0.0 0.00 0.00 0.00 99 1020.2
20260906041746 66 0 0.0 0.0 0.00 0.00 0.00 99 1020.2
20260906041709 66 0 0.0 0.0 0.00 0.00 0.00 99 1020.2
20260906041144 66 0 0.0 0.0 0.00 0.00 0.00 98 1020.0
20260906040552 66 0 0.0 0.0 0.00 0.00 0.00 98 1019.8
20260906035950 66 0 0.0 0.0 0.00 0.00 0.00 97 1019.9
20260906035717 66 0 0.0 0.0 0.00 0.00 0.00 97 1019.8
20260906035344 66 0 0.0 0.0 0.00 0.00 0.00 97 1019.8
20260906034744 66 0 0.0 0.0 0.00 0.00 0.00 97 1019.7
20260906034149 66 0 0.0 0.0 0.00 0.00 0.00 97 1019.7
20260906033710 66 0 0.0 0.0 0.00 0.00 0.00 98 1019.8
20260906033547 66 0 0.0 0.0 0.00 0.00 0.00 98 1019.8
20260906032946 66 0 0.0 0.0 0.00 0.00 0.00 99 1019.7
20260906032350 66 0 0.0 0.0 0.00 0.00 0.00 100 1019.7
20260906032034 66 0 0.0 0.0 0.00 0.00 0.00 100 1019.8
20260906031749 66 0 0.0 0.0 0.00 0.00 0.00 100 1019.8
20260906031711 66 0 0.0 0.0 0.00 0.00 0.00 100 1019.8
20260906031147 66 0 0.0 0.0 0.00 0.00 0.00 100 1019.8
20260906030551 66 0 0.0 0.0 0.00 0.00 0.00 100 1019.8
20260906025949 66 0 0.0 0.0 0.00 0.00 0.00 100 1019.6
20260906025947 66 0 0.0 0.0 0.00 0.00 0.00 100 1019.6
20260906025712 66 0 0.0 0.0 0.00 0.00 0.00 100 1019.6
20260906025352 66 68 1.0 1.0 0.00 0.00 0.00 100 1019.5
20260906024750 65 0 0.0 0.0 0.00 0.00 0.00 100 1019.3
20260906024148 65 71 1.0 3.0 0.00 0.00 0.00 100 1019.2
20260906024112 65 0 0.0 0.0 0.00 0.00 0.00 100 1019.4
20260906023808 65 0 0.0 0.0 0.00 0.00 0.00 100 1019.4
20260906023727 65 0 0.0 0.0 0.00 0.00 0.00 100 1019.4
20260906023554 65 0 0.0 0.0 0.00 0.00 0.00 100 1019.5
20260906022953 65 0 0.0 0.0 0.00 0.00 0.00 100 1019.5
20260906022347 65 0 0.0 0.0 0.00 0.00 0.00 100 1019.4
20260906022121 65 0 0.0 0.0 0.00 0.00 0.00 100 1019.4
20260906021721 65 0 0.0 0.0 0.00 0.00 0.00 100 1019.4
20260906021144 65 0 0.0 0.0 0.00 0.00 0.00 100 1019.4
20260906020549 65 0 0.0 0.0 0.00 0.00 0.00 100 1019.5
20260906015948 65 0 0.0 0.0 0.00 0.00 0.00 100 1019.5
20260906015719 65 0 0.0 0.0 0.00 0.00 0.00 100 1019.4
20260906015353 65 0 0.0 0.0 0.00 0.00 0.00 100 1019.3
20260906014751 65 0 0.0 0.0 0.00 0.00 0.00 100 1019.4
20260906014149 65 0 0.0 0.0 0.00 0.00 0.00 100 1019.4
20260906013716 65 0 0.0 0.0 0.00 0.00 0.00 100 1019.4
20260906013544 65 0 0.0 0.0 0.00 0.00 0.00 100 1019.4
20260906012950 65 0 0.0 0.0 0.00 0.00 0.00 100 1019.3
20260906012353 65 0 0.0 0.0 0.00 0.00 0.00 98 1019.1
20260906012028 65 0 0.0 0.0 0.00 0.00 0.00 96 1019.0
20260906011750 65 0 0.0 0.0 0.00 0.00 0.00 96 1019.0
20260906011712 65 0 0.0 0.0 0.00 0.00 0.00 96 1019.0
20260906011148 65 0 0.0 0.0 0.00 0.00 0.00 95 1019.1
20260906010552 66 0 0.0 0.0 0.00 0.00 0.00 94 1019.1
20260906005951 66 0 0.0 0.0 0.00 0.00 0.00 93 1019.2
20260906005716 66 0 0.0 0.0 0.00 0.00 0.00 93 1019.3
20260906005348 66 0 0.0 0.0 0.00 0.00 0.00 93 1019.3
20260906004745 66 0 0.0 0.0 0.00 0.00 0.00 92 1019.1
20260906004145 67 0 0.0 0.0 0.00 0.00 0.00 91 1019.3
20260906003715 67 0 0.0 0.0 0.00 0.00 0.00 90 1019.2
20260906003552 67 0 0.0 0.0 0.00 0.00 0.00 91 1019.2
20260906002950 67 0 0.0 0.0 0.00 0.00 0.00 89 1019.3
20260906002345 67 0 0.0 0.0 0.00 0.00 0.00 88 1019.3
20260906002004 68 0 0.0 0.0 0.00 0.00 0.00 87 1019.5
20260906001753 68 0 0.0 0.0 0.00 0.00 0.00 87 1019.5
20260906001716 68 0 0.0 0.0 0.00 0.00 0.00 87 1019.5
20260906001150 68 0 0.0 0.0 0.00 0.00 0.00 85 1019.5
20260906000553 69 0 0.0 0.0 0.00 0.00 0.00 84 1019.5
20260905235951 69 75 1.0 3.0 0.00 0.00 0.00 82 1019.5
20260905235716 69 0 0.0 0.0 0.00 0.00 0.00 81 1019.5
20260905235347 69 0 0.0 0.0 0.00 0.00 0.00 81 1019.4
20260905234747 70 0 0.0 0.0 0.00 0.00 0.00 79 1019.3
20260905234153 70 0 0.0 0.0 0.00 0.00 0.00 78 1019.4
20260905233717 70 0 0.0 0.0 0.00 0.00 0.00 78 1019.5
20260905233550 70 0 0.0 0.0 0.00 0.00 0.00 77 1019.3
20260905232947 70 0 0.0 0.0 0.00 0.00 0.00 77 1019.3
20260905232352 71 83 2.0 4.0 0.00 0.00 0.00 76 1019.2
20260905232047 71 74 4.0 6.0 0.00 0.00 0.00 75 1019.2
20260905231752 71 74 4.0 6.0 0.00 0.00 0.00 75 1019.2
20260905231715 71 74 4.0 6.0 0.00 0.00 0.00 75 1019.2
20260905231150 71 71 3.0 4.0 0.00 0.00 0.00 75 1019.1
20260905230546 72 70 3.0 4.0 0.00 0.00 0.00 75 1019.4
20260905225944 72 79 1.0 3.0 0.00 0.00 0.00 75 1019.3
20260905225345 72 50 0.0 2.0 0.00 0.00 0.00 74 1019.4
20260905224744 72 0 0.0 0.0 0.00 0.00 0.00 71 1019.4
20260905224153 73 60 2.0 3.0 0.00 0.00 0.00 70 1019.4
20260905223719 73 70 1.0 2.0 0.00 0.00 0.00 70 1019.3
20260905223551 73 65 1.0 3.0 0.00 0.00 0.00 70 1019.3
20260905222948 74 53 2.0 3.0 0.00 0.00 0.00 68 1019.3
20260905222345 74 65 2.0 3.0 0.00 0.00 0.00 66 1019.2
20260905221724 74 29 0.0 2.0 0.00 0.00 0.00 65 1019.2
20260905221153 74 99 1.0 3.0 0.00 0.00 0.00 66 1019.1
20260905220546 75 31 2.0 4.0 0.00 0.00 0.00 65 1019.4
20260905215946 75 72 2.0 3.0 0.00 0.00 0.00 68 1019.3
20260905215714 75 67 2.0 4.0 0.00 0.00 0.00 68 1019.4
20260905215351 75 79 1.0 3.0 0.00 0.00 0.00 68 1019.3
20260905214748 75 42 0.0 2.0 0.00 0.00 0.00 67 1019.4
20260905214148 75 84 2.0 4.0 0.00 0.00 0.00 69 1019.4
20260905213718 75 41 0.0 1.0 0.00 0.00 0.00 69 1019.4
20260905213553 75 66 1.0 3.0 0.00 0.00 0.00 69 1019.4
20260905212951 74 51 3.0 7.0 0.00 0.00 0.00 71 1019.3
20260905212345 74 78 3.0 6.0 0.00 0.00 0.00 73 1019.3
20260905211718 74 0 0.0 0.0 0.00 0.00 0.00 73 1019.4
20260905211151 73 345 2.0 3.0 0.00 0.00 0.00 73 1019.5
20260905210549 73 0 0.0 0.0 0.00 0.00 0.00 72 1019.6
20260905205949 73 90 1.0 4.0 0.00 0.00 0.00 73 1019.7
20260905205714 73 92 1.0 4.0 0.00 0.00 0.00 72 1019.6
20260905205346 73 79 2.0 4.0 0.00 0.00 0.00 72 1019.7
20260905204745 73 0 0.0 0.0 0.00 0.00 0.00 71 1019.7
20260905204144 72 78 0.0 1.0 0.00 0.00 0.00 75 1019.7
20260905203711 72 0 0.0 0.0 0.00 0.00 0.00 76 1019.7
20260905203549 72 0 0.0 0.0 0.00 0.00 0.00 77 1019.9
20260905202949 72 81 1.0 4.0 0.00 0.00 0.00 81 1019.8
20260905202345 71 0 0.0 0.0 0.00 0.00 0.00 81 1019.9
20260905201718 71 39 0.0 2.0 0.00 0.00 0.00 83 1020.1
20260905201151 71 0 0.0 0.0 0.00 0.00 0.00 85 1020.0
20260905200546 71 0 0.0 0.0 0.00 0.00 0.00 84 1020.0
20260905195944 71 47 0.0 3.0 0.00 0.00 0.00 83 1020.0
20260905195719 71 35 1.0 2.0 0.00 0.00 0.00 83 1020.2
20260905195348 71 0 0.0 0.0 0.00 0.00 0.00 85 1020.1
20260905194746 71 0 0.0 0.0 0.00 0.00 0.00 86 1020.0
20260905194150 71 356 0.0 2.0 0.00 0.00 0.00 85 1020.0
20260905193717 71 41 0.0 2.0 0.00 0.00 0.00 85 1019.9
20260905193553 71 360 0.0 1.0 0.00 0.00 0.00 84 1020.0
20260905192951 71 330 1.0 4.0 0.00 0.00 0.00 85 1019.9
20260905192346 71 343 2.0 4.0 0.00 0.00 0.00 85 1019.9
20260905191754 71 327 0.0 1.0 0.00 0.00 0.00 87 1020.1
20260905191718 71 327 0.0 1.0 0.00 0.00 0.00 87 1020.1
20260905191151 71 342 1.0 3.0 0.00 0.00 0.00 86 1020.0
20260905190545 71 326 0.0 2.0 0.00 0.00 0.00 88 1019.9
20260905185952 71 318 0.0 2.0 0.00 0.00 0.00 87 1019.9
20260905185717 71 314 1.0 2.0 0.00 0.00 0.00 88 1019.8
20260905185350 71 319 0.0 1.0 0.00 0.00 0.00 89 1020.1
20260905184746 71 313 2.0 3.0 0.00 0.00 0.00 90 1020.1
20260905184146 71 350 2.0 4.0 0.00 0.00 0.00 89 1019.9
20260905183725 70 307 0.0 3.0 0.00 0.00 0.00 92 1019.8
20260905183550 70 321 1.0 4.0 0.00 0.00 0.00 93 1019.8
20260905182950 69 315 1.0 3.0 0.00 0.00 0.00 94 1019.9
20260905182348 69 348 0.0 1.0 0.00 0.00 0.00 94 1020.0
20260905181747 69 345 0.0 1.0 0.00 0.00 0.00 96 1020.0
20260905181713 69 345 0.0 1.0 0.00 0.00 0.00 96 1020.0
20260905181145 69 0 0.0 0.0 0.00 0.00 0.00 99 1020.2
20260905180548 69 309 1.0 3.0 0.00 0.00 0.00 100 1020.2
20260905175946 69 0 0.0 0.0 0.00 0.00 0.00 100 1020.2
20260905175718 69 0 0.0 0.0 0.00 0.00 0.00 100 1020.1
20260905175354 69 69 1.0 2.0 0.00 0.00 0.00 100 1020.1
20260905174753 69 0 0.0 0.0 0.00 0.00 0.00 100 1020.2
20260905174151 69 0 0.0 0.0 0.00 0.00 0.00 100 1020.1
20260905173803 69 0 0.0 0.0 0.00 0.00 0.00 100 1020.1
20260905173712 69 0 0.0 0.0 0.00 0.00 0.00 100 1020.1
20260905173550 69 0 0.0 0.0 0.00 0.00 0.00 100 1020.1
20260905172947 69 0 0.0 0.0 0.00 0.00 0.00 100 1020.4
20260905172353 69 315 0.0 1.0 0.00 0.00 0.00 100 1020.3
20260905171832 69 0 0.0 0.0 0.00 0.00 0.00 97 1020.4
20260905171752 69 0 0.0 0.0 0.00 0.00 0.00 97 1020.4
20260905171715 69 0 0.0 0.0 0.00 0.00 0.00 97 1020.4
20260905171151 69 0 0.0 0.0 0.00 0.00 0.00 97 1020.4
20260905170549 69 0 0.0 0.0 0.00 0.00 0.00 99 1020.3
20260905165948 69 0 0.0 0.0 0.00 0.00 0.00 100 1020.4